Retour au catalogue

SL-8 R/B

ActifPO
NORAD 13066·ROCKET BODY·🇷🇺 Russia

Lancé Feb 17, 1982 depuis Plesetsk Cosmodrome

Loading…

Prochains Passages (prochaines 24 heures)

TLE

FraisSource: Space-Track

Époque: Sep 14, 2026, 08:13 UTC

1 13066U 82012B   26257.34247171  .00000119  00000-0  10325-3 0  9995
2 13066  82.8972 213.6265 0044181 149.2546   2.9267 13.77411242239673

Suivez SL-8 R/B en temps réel avec AllMySat

Download on the App Store